This demonstration page uses our WeatherBlox Daily Observations layout. Learn more.

Left ArrowRight Arrow

44.8408, -93.29828

Hourly Observations for March 12, 2018

Temp ( °F °C ) Dew Point ( °F °C ) Humidity (%) Winds ( mph kmh ) Pressure ( in mb ) Visibility ( mi km ) Precip ( " mm )
12:53 am 00:53 Clear 30 -1.1 25 -3.9 82 82 NW 9 15 30.28 1025 10 16 0.00 0.00
1:53 am 01:53 Clear 28 -2.2 24 -4.4 85 85 NW 9 15 30.29 1026 10 16 0.00 0.00
2:53 am 02:53 Clear 27 -2.8 22 -5.6 81 81 WNW 9 15 30.28 1026 10 16 0.00 0.00
3:53 am 03:53 Clear 25 -3.9 21 -6.1 85 85 NW 9 15 30.28 1025 10 16 0.00 0.00
4:53 am 04:53 Clear 25 -3.9 20 -6.7 81 81 NW 8 13 30.28 1025 10 16 0.00 0.00
5:53 am 05:53 Clear 23 -5 19 -7.2 85 85 NW 9 15 30.28 1026 10 16 0.00 0.00
6:53 am 06:53 Clear 22 -5.6 18 -7.8 85 85 NW 7 11 30.29 1026 10 16 0.00 0.00
7:53 am 07:53 Sunny 22 -5.6 18 -7.8 85 85 NW 9 15 30.31 1026 9 14 0.00 0.00
8:53 am 08:53 Sunny 25 -3.9 19 -7.2 78 78 NNW 10 17 30.31 1027 10 16 0.00 0.00
9:53 am 09:53 Sunny 28 -2.2 20 -6.7 72 72 NNW 12 19 30.32 1027 10 16 0.00 0.00
10:53 am 10:53 Sunny 32 0 20 -6.7 61 61 NW 9 15 30.32 1027 10 16 0.00 0.00
11:53 am 11:53 Sunny 35 1.7 20 -6.7 54 54 NNW 7 11 30.31 1027 10 16 0.00 0.00
12:53 pm 12:53 Sunny 38 3.3 19 -7.2 46 46 NW 13 20 30.30 1026 10 16 0.00 0.00
1:53 pm 13:53 Sunny 39 3.9 19 -7.2 45 45 WNW 18 30 30.29 1026 10 16 0.00 0.00
2:53 pm 14:53 Sunny 39 3.9 20 -6.7 46 46 WNW 15 24 30.27 1025 10 16 0.00 0.00
3:53 pm 15:53 Sunny 40 4.4 19 -7.2 43 43 WNW 17 28 30.26 1025 10 16 0.00 0.00
4:53 pm 16:53 Sunny 40 4.4 20 -6.7 45 45 NW 21 33 30.26 1025 10 16 0.00 0.00
5:53 pm 17:53 Sunny 39 3.9 19 -7.2 45 45 NW 10 17 30.26 1025 10 16 0.00 0.00
6:53 pm 18:53 Mostly Sunny 38 3.3 20 -6.7 48 48 NW 13 20 30.26 1025 10 16 0.00 0.00
7:53 pm 19:53 Mostly Clear 34 1.1 21 -6.1 59 59 NNW 6 9 30.28 1025 10 16 0.00 0.00
8:53 pm 20:53 Partly Cloudy 32 0 19 -7.2 59 59 WNW 6 9 30.29 1026 10 16 0.00 0.00
9:53 pm 21:53 Mostly Clear 33 0.6 18 -7.8 54 54 NNW 10 17 30.31 1026 10 16 0.00 0.00
10:53 pm 22:53 Clear 30 -1.1 18 -7.8 61 61 WNW 10 17 30.33 1027 10 16 0.00 0.00
11:53 pm 23:53 Clear 29 -1.7 17 -8.3 61 61 NW 8 13 30.34 1027 10 16 0.00 0.00

Powered by AerisWeather